Location: B�di�
(14.6834°N, 3.1047°W)
Time: 04:56:52
(UTC+00:00)

NOSS 0 Rocket - Pass Details

Date: 24 January 2020
Orbit: 935 x 955 km, 70.0° (Epoch: 18 February)

Event Time Altitude Azimuth Distance (km) Brightness Sun altitude
Rises 18:18:53 0° 346° (NNW) 3,607 6.9 -3.5°
Reaches altitude 10° 18:21:25 10° 348° (NNW) 2,658 6.2 -4.1°
Maximum altitude 18:27:35 73° 72° (ENE) 981 3.9 -5.5°
Drops below altitude 10° 18:33:42 10° 157° (SSE) 2,642 6.2 -6.9°
Sets 18:36:13 0° 159° (SSE) 3,584 6.9 -7.5°
